Regional Weather Roundup
Issued by NWS

Home | Current Version | Previous Version | Graphics & Text | Print | Product List | Glossary On
Versions: 1 2 3 4 5 6 7 8 9 10 11 12 13 14 15 16 17 18 19 20 21 22 23 24 25 26 27 28 29 30 31 32 33 34 35 36 37 38 39 40 41 42 43 44 45 46 47 48 49 50
000
ASUS45 KBOI 230710
RWRID
WEATHER ROUNDUP FOR IDAHO
NATIONAL WEATHER SERVICE BOISE ID
100 AM MDT SAT AUG 23 2014

NOTE: "FAIR" INDICATES FEW OR NO CLOUDS BELOW 12000 FEET
WITH NO SIGNIFICANT WEATHER AND/OR OBSTRUCTIONS TO VISIBILITY

IDZ012-014-230800-
SOUTHWEST IDAHO


CITY           SKY/WX    TMP DP  RH WIND       PRES   REMARKS
BOISE          PTCLDY    62  44  51 S5        29.99R
CALDWELL       PTCLDY    59  39  47 W9        30.00R
MOUNTAIN HOME  PTCLDY    58  46  63 E8        29.98R
$$

IDZ016-017-230800-
SOUTHCENTRAL IDAHO


CITY           SKY/WX    TMP DP  RH WIND       PRES   REMARKS
BURLEY         MOCLDY    52  44  74 S7        29.98F
JEROME         MOCLDY    51  48  89 NE9       30.02R
TWIN FALLS     PTCLDY    53  45  74 S12G21    30.00S
$$

IDZ019>023-230800-
SOUTHEAST IDAHO


CITY           SKY/WX    TMP DP  RH WIND       PRES   REMARKS
IDAHO FALLS    CLOUDY    50  49  96 CALM      30.04S
POCATELLO      MOCLDY    53  52  96 CALM      30.02F
REXBURG        CLOUDY    53  48  83 CALM      30.04F
$$

IDZ006-010-011-018-031-032-230800-
CENTRAL IDAHO MOUNTAINS


CITY           SKY/WX    TMP DP  RH WIND       PRES   REMARKS
MCCALL         PTCLDY    45  42  89 CALM      30.05F
HAILEY         CLOUDY    50  43  76 N6        30.08R
STANLEY          N/A     39  39 100 E5        30.13S
SALMON         MOCLDY    54  48  82 CALM      30.06R
CHALLIS        CLOUDY    46  43  89 S3        30.08S
$$

IDZ002-004-006-007-026-230800-
NORTHERN IDAHO


CITY           SKY/WX    TMP DP  RH WIND       PRES   REMARKS
LEWISTON       MOCLDY    61  57  87 E5        30.04R
LOWELL           N/A     57  56  96 CALM      30.07S
COEUR D`ALENE  MOCLDY    61  46  59 NE13      30.10S
MULLAN PASS    CLOUDY    43  42  97 CALM      30.17S
$$


USA.gov is the U.S. government's official web portal to all federal, state and local government web resources and services.